Location: Newark
(46.7636°N, 1.8358°W)
Time: 14:54:33
(UTC+00:00)

Tiros 1 - Pass Details

Date: 28 October 2019
Orbit: 630 x 664 km, 48.4° (Epoch: 14 November)

Event Time Altitude Azimuth Distance (km) Brightness Sun altitude
Exits shadow 03:34:34 22° 120° (ESE) 1,423 9.2 -32.6°
Drops below altitude 10° 03:36:20 10° 117° (ESE) 2,079 10.2 -32.3°
Sets 03:38:41 0° 116° (ESE) 2,990 11.2 -31.9°
